EW5254 Weather Reports


Display with metric or nautical units.
time (UTC)temp
F
wind
direction
speed
MPH
gust
MPH
rain 1hr
in
rain 24hr
in
rain mn
in
humidity
%
barometer
mb
20260905214505 83 251 4.0 9.0 0.00 0.00 0.00 46 999.7
20260905213002 84 188 5.0 11.0 0.00 0.00 0.00 39 999.6
20260905211503 85 132 6.0 12.0 0.00 0.00 0.00 43 999.6
20260905210110 88 126 6.0 17.0 0.00 0.00 0.00 36 999.6
20260905204603 89 124 7.0 13.0 0.00 0.00 0.00 34 999.9
20260905203057 87 221 7.0 14.0 0.00 0.00 0.00 39 1000.3
20260905201603 87 185 8.0 17.0 0.00 0.00 0.00 38 1000.7
20260905200111 84 163 7.0 12.0 0.00 0.00 0.00 42 1001.2
20260905194551 83 157 9.0 13.0 0.00 0.00 0.00 43 1001.2
20260905193050 84 130 9.0 17.0 0.00 0.00 0.00 42 1001.2
20260905191551 87 82 5.0 15.0 0.00 0.00 0.00 38 1001.5
20260905190050 86 298 6.0 13.0 0.00 0.00 0.00 37 1001.6
20260905184550 88 124 3.0 9.0 0.00 0.00 0.00 36 1001.8
20260905183049 88 61 2.0 11.0 0.00 0.00 0.00 38 1002.1
20260905181545 86 314 4.0 9.0 0.00 0.00 0.00 41 1002.3
20260905180046 85 49 5.0 12.0 0.00 0.00 0.00 41 1002.6
20260905174543 86 328 3.0 9.0 0.00 0.00 0.00 40 1002.7
20260905173044 86 250 4.0 9.0 0.00 0.00 0.00 40 1002.7
20260905171555 85 306 3.0 10.0 0.00 0.00 0.00 43 1002.8
20260905170036 84 49 2.0 8.0 0.00 0.00 0.00 44 1002.7
20260905164538 83 305 5.0 12.0 0.00 0.00 0.00 46 1002.7
20260905163031 82 265 5.0 10.0 0.00 0.00 0.00 48 1002.8
20260905161537 81 289 1.0 10.0 0.00 0.00 0.00 50 1002.8
20260905160037 81 240 5.0 11.0 0.00 0.00 0.00 51 1002.9
20260905154544 80 273 5.0 10.0 0.00 0.00 0.00 53 1002.8
20260905153026 80 277 6.0 9.0 0.00 0.00 0.00 53 1002.7
20260905151519 79 257 5.0 8.0 0.00 0.00 0.00 55 1002.8
20260905150015 78 242 4.0 10.0 0.00 0.00 0.00 57 1002.7
20260905144512 76 220 4.0 9.0 0.00 0.00 0.00 59 1002.7
20260905143009 75 252 6.0 10.0 0.00 0.00 0.00 61 1002.7
20260905141507 74 269 5.0 9.0 0.00 0.00 0.00 63 1002.6
20260905140006 74 228 6.0 9.0 0.00 0.00 0.00 64 1002.5
20260905134507 72 242 5.0 9.0 0.00 0.00 0.00 67 1002.3
20260905133003 71 227 5.0 7.0 0.00 0.00 0.00 68 1002.3
20260905131502 71 223 5.0 8.0 0.00 0.00 0.00 70 1002.1
20260905130100 70 219 5.0 7.0 0.00 0.00 0.00 72 1002.0
20260905124559 69 202 5.0 8.0 0.00 0.00 0.00 73 1001.9
20260905123057 69 215 4.0 7.0 0.00 0.00 0.00 75 1001.7
20260905121556 69 189 5.0 7.0 0.00 0.00 0.00 75 1001.5
20260905120056 69 221 5.0 9.0 0.00 0.00 0.00 75 1001.6
20260905114609 69 238 4.0 7.0 0.00 0.00 0.00 75 1001.7
20260905113055 69 228 4.0 8.0 0.00 0.00 0.00 76 1001.6
20260905111607 69 209 6.0 10.0 0.00 0.00 0.00 76 1001.6
20260905110100 70 190 6.0 10.0 0.00 0.00 0.00 75 1001.5
20260905104553 70 217 5.0 10.0 0.00 0.00 0.00 74 1001.5
20260905103051 69 230 5.0 8.0 0.00 0.00 0.00 75 1001.7
20260905101549 69 203 3.0 6.0 0.00 0.00 0.00 75 1001.6
20260905100050 69 215 4.0 6.0 0.00 0.00 0.00 75 1001.5
20260905094559 70 211 2.0 5.0 0.00 0.00 0.00 74 1001.5
20260905093044 71 197 3.0 11.0 0.00 0.00 0.00 73 1001.4
20260905091545 71 138 7.0 12.0 0.00 0.00 0.00 72 1001.5
20260905090039 72 114 6.0 10.0 0.00 0.00 0.00 70 1001.8
20260905084542 72 211 1.0 10.0 0.00 0.00 0.00 69 1001.6
20260905083035 72 176 7.0 15.0 0.00 0.00 0.00 68 1001.2
20260905081535 72 180 9.0 14.0 0.00 0.00 0.00 69 1001.2
20260905080048 72 147 10.0 19.0 0.00 0.00 0.00 69 1001.4
20260905074532 73 165 10.0 19.0 0.00 0.00 0.00 68 1001.5
20260905073039 73 165 8.0 13.0 0.00 0.00 0.00 68 1001.5
20260905071528 73 118 9.0 14.0 0.00 0.00 0.00 68 1001.4
20260905070032 73 175 10.0 16.0 0.00 0.00 0.00 67 1001.3
20260905064526 74 132 10.0 20.0 0.00 0.00 0.00 66 1001.5
20260905063024 74 133 9.0 18.0 0.00 0.00 0.00 65 1001.5
20260905061530 74 142 8.0 20.0 0.00 0.00 0.00 63 1001.5
20260905060022 74 165 10.0 16.0 0.00 0.00 0.00 59 1001.6
20260905054520 74 144 12.0 19.0 0.00 0.00 0.00 59 1001.5
20260905053021 74 189 12.0 20.0 0.00 0.00 0.00 58 1001.5
20260905051513 75 171 10.0 19.0 0.00 0.00 0.00 58 1001.4
20260905050013 75 123 11.0 19.0 0.00 0.00 0.00 59 1001.4
20260905044516 74 160 13.0 23.0 0.00 0.00 0.00 61 1001.3
20260905043010 73 147 12.0 21.0 0.00 0.00 0.00 61 1001.7
20260905041511 74 142 14.0 29.0 0.00 0.00 0.00 58 1001.6
20260905040016 74 128 14.0 20.0 0.00 0.00 0.00 59 1001.7
20260905034511 73 164 14.0 23.0 0.00 0.00 0.00 64 1001.7
20260905033007 73 153 12.0 20.0 0.00 0.00 0.00 69 1001.6
20260905031506 73 165 13.0 21.0 0.00 0.00 0.00 69 1001.6
20260905030007 73 155 12.0 24.0 0.00 0.00 0.00 68 1001.5
20260905024507 74 129 17.0 23.0 0.00 0.00 0.00 65 1001.3
20260905023006 77 152 11.0 19.0 0.00 0.00 0.00 57 1001.2
20260905021507 78 109 0.0 3.0 0.00 0.00 0.00 51 1001.3
20260905020005 79 212 1.0 2.0 0.00 0.00 0.00 51 1000.9
20260905014504 79 291 0.0 2.0 0.00 0.00 0.00 52 1000.5
20260905013004 79 291 0.0 2.0 0.00 0.00 0.00 51 1000.0
20260905011503 81 291 1.0 2.0 0.00 0.00 0.00 49 1000.0
20260905010001 81 291 1.0 4.0 0.00 0.00 0.00 47 1000.2
20260905004501 82 126 0.0 3.0 0.00 0.00 0.00 46 1000.3
20260905003101 82 126 2.0 7.0 0.00 0.00 0.00 42 1000.4
20260905001559 83 103 2.0 6.0 0.00 0.00 0.00 41 1000.3
20260905000058 83 164 6.0 11.0 0.00 0.00 0.00 42 1000.4
20260904234558 85 205 8.0 14.0 0.00 0.00 0.00 41 1000.2
20260904233058 84 229 9.0 18.0 0.00 0.00 0.00 43 999.9
20260904231559 81 250 11.0 22.0 0.00 0.00 0.00 44 1000.3
20260904230105 87 271 9.0 14.0 0.00 0.00 0.00 38 1000.1
20260904224556 87 292 4.0 13.0 0.00 0.00 0.00 38 999.9
20260904223058 86 306 8.0 14.0 0.00 0.00 0.00 39 999.7
20260904221554 88 281 9.0 17.0 0.00 0.00 0.00 38 999.6
20260904220109 88 298 1.0 6.0 0.00 0.00 0.00 36 999.8